Вернуться в каталог

STARLINK-2273

АктивенСвязьVLEO
NORAD 47993·PAYLOAD·🇺🇸 United States

Запущен Mar 24, 2021 с Cape Canaveral Space Force Station

Loading…

Ближайшие Пролёты (ближайшие 24 часа)

TLE

СвежийSource: CelesTrak SupGP

Эпоха: Sep 15, 2026, 02:17 UTC

1 47993C 21024S   26258.09562500  .00322030  00000+0  88848-3 0  2587
2 47993  53.1399  97.6108 0004826 221.4917  10.1490 15.92988629    16

Отслеживайте STARLINK-2273 в реальном времени с AllMySat

Download on the App Store